Date String (YYYY-MM-DD hh:mm:ss) UTC,Instrument flags,absolute air pressure of the measurement (hPa),sample flow rate (lpm),inlet stack bypass flow (lpm),air temperature of the measurement (°C),ambient temperature measured by the external sensor (°C),aerosol sample conditioner tube jacket temperature (°C),OPC LED temperature (°C),internal box temperature (°C),relative humidity of the measurement (%),span deviation,mass concentration of particles derived from Lorenz-Mie calculation of OPC scattering (μg/m³),mass concentration of particles derived from Lorenz-Mie calculation of OPC scattering (μg/m³),mass concentration of particles derived from Lorenz-Mie calculation of OPC scattering (μg/m³)
DateTimeUTC,F1_M11,P_M11,Q1_M11,Q2_M11,T1_M11,T2_M11,T3_M11,T4_M11,T5_M11,U1_M11,ZSPAN_M11,X0_M11,X2_M11,X1_M11
2024-03-09 02:00:00,SystemResetWarning,0833.7,5.02,000.00,018.2,017.4,000.0,027.1,020.2,19.8,0000.0,0008.17,0005.51,0005.31
2024-03-09 02:01:00,SystemResetWarning,0833.7,4.99,000.00,018.4,018.4,000.0,027.2,020.7,19.6,0000.0,0008.27,0005.52,0005.32
2024-03-09 02:02:00,SystemResetWarning,0833.7,5.00,000.00,018.7,018.9,000.0,027.2,020.9,19.3,0000.0,0008.42,0005.56,0005.35
2024-03-09 02:03:00,SystemResetWarning,0833.7,5.00,000.00,018.7,018.7,000.0,027.1,020.8,19.3,0000.0,0008.43,0005.58,0005.37
2024-03-09 02:04:00,SystemResetWarning,0833.7,4.99,000.00,018.7,018.4,000.0,027.1,020.6,19.3,0000.0,0008.30,0005.55,0005.37
2024-03-09 02:05:00,SystemResetWarning,0833.7,5.01,000.00,018.6,018.2,000.0,027.1,020.4,19.3,0000.0,0008.28,0005.56,0005.38
2024-03-09 02:06:00,SystemResetWarning,0833.7,5.00,000.00,018.6,018.0,000.0,027.1,020.2,19.3,0000.0,0008.30,0005.58,0005.40
2024-03-09 02:07:00,SystemResetWarning,0833.6,5.00,000.00,018.5,017.8,000.0,027.1,020.1,19.3,0000.0,0008.20,0005.59,0005.42
2024-03-09 02:08:00,SystemResetWarning,0833.6,5.00,000.00,018.4,017.6,000.0,027.0,020.0,19.3,0000.0,0008.54,0005.61,0005.45
2024-03-09 02:09:00,SystemResetWarning,0833.6,5.00,000.00,018.4,017.4,000.0,027.1,020.0,19.4,0000.0,0008.48,0005.64,0005.49
2024-03-09 02:10:00,SystemResetWarning,0833.6,5.00,000.00,018.3,017.3,000.0,027.1,020.0,19.5,0000.0,0008.34,0005.67,0005.51
2024-03-09 02:11:00,SystemResetWarning,0833.6,5.01,000.00,018.3,017.2,000.0,027.1,020.0,19.5,0000.0,0008.31,0005.72,0005.54
2024-03-09 02:12:00,SystemResetWarning,0833.6,5.00,000.00,018.3,017.1,000.0,027.1,020.0,19.5,0000.0,0008.20,0005.70,0005.55
2024-03-09 02:13:00,SystemResetWarning,0833.6,4.99,000.00,018.2,017.0,000.0,027.1,020.0,19.5,0000.0,0008.02,0005.68,0005.54
2024-03-09 02:14:00,SystemResetWarning,0833.6,5.00,000.00,018.2,017.1,000.0,027.1,020.1,19.6,0000.0,0008.05,0005.69,0005.55
2024-03-09 02:15:00,SystemResetWarning,0833.6,5.01,000.00,018.4,018.0,000.0,027.2,020.5,19.4,0000.0,0008.12,0005.75,0005.59
2024-03-09 02:16:00,SystemResetWarning,0833.7,5.00,000.00,018.6,019.0,000.0,027.3,021.0,19.1,0000.0,0008.14,0005.76,0005.61
2024-03-09 02:17:00,SystemResetWarning,0833.7,4.98,000.00,018.9,019.4,000.0,027.3,021.2,18.8,0000.0,0008.16,0005.77,0005.61
2024-03-09 02:18:00,SystemResetWarning,0833.6,5.00,000.00,018.9,019.1,000.0,027.2,020.9,18.8,0000.0,0008.16,0005.77,0005.61
2024-03-09 02:19:00,SystemResetWarning,0833.6,5.00,000.00,018.8,018.8,000.0,027.2,020.7,18.8,0000.0,0007.65,0005.75,0005.59
2024-03-09 02:20:00,SystemResetWarning,0833.6,5.00,000.00,018.8,018.5,000.0,027.2,020.5,18.8,0000.0,0007.70,0005.75,0005.57
2024-03-09 02:21:00,SystemResetWarning,0833.6,5.00,000.00,018.7,018.2,000.0,027.2,020.4,18.8,0000.0,0007.67,0005.73,0005.57
2024-03-09 02:22:00,SystemResetWarning,0833.6,5.00,000.00,018.7,018.0,000.0,027.2,020.3,18.8,0000.0,0007.62,0005.71,0005.55
2024-03-09 02:23:00,SystemResetWarning,0833.6,5.01,000.00,018.6,017.9,000.0,027.2,020.2,18.8,0000.0,0007.65,0005.72,0005.54
2024-03-09 02:24:00,SystemResetWarning,0833.6,5.01,000.00,018.5,017.7,000.0,027.1,020.1,18.7,0000.0,0007.74,0005.75,0005.55
2024-03-09 02:25:00,SystemResetWarning,0833.6,5.00,000.00,018.5,017.6,000.0,027.1,020.0,18.8,0000.0,0007.69,0005.71,0005.52
2024-03-09 02:26:00,SystemResetWarning,0833.6,4.99,000.00,018.4,017.5,000.0,027.1,020.0,18.9,0000.0,0007.59,0005.65,0005.48
2024-03-09 02:27:00,SystemResetWarning,0833.6,4.99,000.00,018.4,017.4,000.0,027.1,020.0,18.8,0000.0,0007.57,0005.63,0005.46
2024-03-09 02:28:00,SystemResetWarning,0833.7,5.00,000.00,018.4,017.3,000.0,027.1,020.0,18.7,0000.0,0007.52,0005.60,0005.44
2024-03-09 02:29:00,SystemResetWarning,0833.7,5.02,000.00,018.3,017.2,000.0,027.1,020.0,18.6,0000.0,0007.52,0005.59,0005.43
2024-03-09 02:30:00,SystemResetWarning,0833.7,5.01,000.00,018.3,017.1,000.0,027.1,020.0,18.6,0000.0,0007.54,0005.59,0005.42
2024-03-09 02:31:00,SystemResetWarning,0833.7,4.98,000.00,018.3,017.1,000.0,027.1,020.0,18.6,0000.0,0007.42,0005.57,0005.41
2024-03-09 02:32:00,SystemResetWarning,0833.6,5.00,000.00,018.3,017.0,000.0,027.1,020.0,18.6,0000.0,0007.40,0005.55,0005.39
2024-03-09 02:33:00,SystemResetWarning,0833.6,5.01,000.00,018.2,017.0,000.0,027.1,020.0,18.6,0000.0,0007.35,0005.52,0005.37
2024-03-09 02:34:00,SystemResetWarning,0833.7,5.00,000.00,018.3,017.7,000.0,027.2,020.3,18.5,0000.0,0007.28,0005.49,0005.37
2024-03-09 02:35:00,SystemResetWarning,0833.7,5.00,000.00,018.6,018.7,000.0,027.3,020.9,18.2,0000.0,0007.17,0005.47,0005.36
2024-03-09 02:36:00,SystemResetWarning,0833.7,4.99,000.00,018.8,019.3,000.0,027.3,021.2,17.9,0000.0,0007.11,0005.46,0005.36
2024-03-09 02:37:00,SystemResetWarning,0833.7,4.99,000.00,018.8,019.0,000.0,027.2,021.0,17.9,0000.0,0007.11,0005.45,0005.35
2024-03-09 02:38:00,SystemResetWarning,0833.7,5.01,000.00,018.8,018.7,000.0,027.2,020.7,17.9,0000.0,0007.09,0005.44,0005.34
2024-03-09 02:39:00,SystemResetWarning,0833.6,5.00,000.00,018.8,018.4,000.0,027.2,020.5,17.9,0000.0,0007.05,0005.42,0005.32
2024-03-09 02:40:00,SystemResetWarning,0833.7,4.99,000.00,018.7,018.2,000.0,027.2,020.3,17.9,0000.0,0007.18,0005.43,0005.31
2024-03-09 02:41:00,SystemResetWarning,0833.7,5.00,000.00,018.6,017.9,000.0,027.2,020.2,17.9,0000.0,0007.28,0005.43,0005.30
2024-03-09 02:42:00,SystemResetWarning,0833.7,5.00,000.00,018.5,017.7,000.0,027.1,020.1,18.0,0000.0,0007.30,0005.43,0005.30
2024-03-09 02:43:00,SystemResetWarning,0833.7,4.99,000.00,018.5,017.5,000.0,027.1,020.0,18.1,0000.0,0007.34,0005.42,0005.29
2024-03-09 02:44:00,SystemResetWarning,0833.7,5.01,000.00,018.4,017.3,000.0,027.1,020.0,18.2,0000.0,0007.36,0005.43,0005.28
2024-03-09 02:45:00,SystemResetWarning,0833.7,4.99,000.00,018.4,017.2,000.0,027.1,020.0,18.3,0000.0,0007.37,0005.42,0005.26
2024-03-09 02:46:00,SystemResetWarning,0833.8,5.00,000.00,018.3,017.1,000.0,027.1,020.0,18.3,0000.0,0007.33,0005.36,0005.21
2024-03-09 02:47:00,SystemResetWarning,0833.8,5.01,000.00,018.3,017.0,000.0,027.2,020.0,18.3,0000.0,0007.31,0005.33,0005.18
2024-03-09 02:48:00,SystemResetWarning,0833.7,5.00,000.00,018.3,016.9,000.0,027.2,020.0,18.4,0000.0,0007.28,0005.31,0005.17
2024-03-09 02:49:00,SystemResetWarning,0833.8,5.00,000.00,018.3,017.3,000.0,027.2,020.2,18.4,0000.0,0007.29,0005.30,0005.16
2024-03-09 02:50:00,SystemResetWarning,0833.8,5.01,000.00,018.5,018.4,000.0,027.3,020.7,18.2,0000.0,0007.32,0005.31,0005.16
2024-03-09 02:51:00,SystemResetWarning,0833.8,4.99,000.00,018.7,018.9,000.0,027.3,021.0,18.0,0000.0,0007.16,0005.28,0005.16
2024-03-09 02:52:00,SystemResetWarning,0833.8,4.99,000.00,018.7,018.7,000.0,027.2,020.8,17.9,0000.0,0006.95,0005.23,0005.13
2024-03-09 02:53:00,SystemResetWarning,0833.8,5.00,000.00,018.7,018.4,000.0,027.2,020.6,17.9,0000.0,0006.84,0005.20,0005.11
2024-03-09 02:54:00,SystemResetWarning,0833.8,5.00,000.00,018.6,018.1,000.0,027.2,020.4,18.0,0000.0,0006.69,0005.16,0005.09
2024-03-09 02:55:00,SystemResetWarning,0833.7,5.00,000.00,018.6,017.9,000.0,027.1,020.2,18.0,0000.0,0006.69,0005.15,0005.08
2024-03-09 02:56:00,SystemResetWarning,0833.8,5.00,000.00,018.5,017.7,000.0,027.1,020.1,18.1,0000.0,0006.66,0005.14,0005.07
2024-03-09 02:57:00,SystemResetWarning,0833.8,4.99,000.00,018.4,017.5,000.0,027.1,020.0,18.2,0000.0,0006.66,0005.14,0005.07
2024-03-09 02:58:00,SystemResetWarning,0833.8,5.00,000.00,018.4,017.4,000.0,027.1,020.0,18.3,0000.0,0006.73,0005.13,0005.06
2024-03-09 02:59:00,SystemResetWarning,0833.8,5.00,000.00,018.4,017.3,000.0,027.1,020.0,18.3,0000.0,0006.71,0005.12,0005.04
